TimeEST,TemperatureF,Dew PointF,Humidity,Sea Level PressureIn,VisibilityMPH,Wind Direction,Wind SpeedMPH,Gust SpeedMPH,PrecipitationIn,Events,Conditions,WindDirDegrees,DateUTC
12:08 AM,28.4,26.6,93,30.44,10.0,Calm,Calm,-,N/A,,Overcast,0,2012-11-17 05:08:00
12:52 AM,28.0,24.1,85,30.48,10.0,Calm,Calm,-,N/A,,Mostly Cloudy,0,2012-11-17 05:52:00
1:13 AM,28.4,24.8,86,30.45,10.0,Calm,Calm,-,N/A,,Overcast,0,2012-11-17 06:13:00
1:37 AM,28.4,24.8,86,30.46,10.0,Calm,Calm,-,N/A,,Overcast,0,2012-11-17 06:37:00
1:52 AM,28.0,25.0,88,30.50,10.0,Calm,Calm,-,N/A,,Overcast,0,2012-11-17 06:52:00
2:52 AM,24.1,19.9,84,30.52,10.0,Calm,Calm,-,N/A,,Partly Cloudy,0,2012-11-17 07:52:00
3:43 AM,24.8,21.2,86,30.49,10.0,Calm,Calm,-,N/A,,Overcast,0,2012-11-17 08:43:00
3:52 AM,25.0,21.9,88,30.54,10.0,Calm,Calm,-,N/A,,Overcast,0,2012-11-17 08:52:00
4:52 AM,27.0,24.1,89,30.57,10.0,Calm,Calm,-,N/A,,Overcast,0,2012-11-17 09:52:00
5:52 AM,27.0,24.1,89,30.58,10.0,Calm,Calm,-,N/A,,Overcast,0,2012-11-17 10:52:00
6:52 AM,25.0,21.0,85,30.61,10.0,Calm,Calm,-,N/A,,Scattered Clouds,0,2012-11-17 11:52:00
7:02 AM,24.8,21.2,86,30.56,10.0,Calm,Calm,-,N/A,,Mostly Cloudy,0,2012-11-17 12:02:00
7:52 AM,25.0,21.9,88,30.64,10.0,Calm,Calm,-,N/A,,Scattered Clouds,0,2012-11-17 12:52:00
8:52 AM,28.0,25.0,88,30.65,10.0,Calm,Calm,-,N/A,,Clear,0,2012-11-17 13:52:00
9:52 AM,36.0,26.1,67,30.65,10.0,Calm,Calm,-,N/A,,Clear,0,2012-11-17 14:52:00
10:52 AM,37.9,25.0,60,30.64,10.0,Calm,Calm,-,N/A,,Scattered Clouds,0,2012-11-17 15:52:00
11:52 AM,39.0,21.0,49,30.63,10.0,SSE,4.6,-,N/A,,Clear,150,2012-11-17 16:52:00
12:52 PM,42.1,21.0,43,30.61,10.0,Calm,Calm,-,N/A,,Clear,0,2012-11-17 17:52:00
1:52 PM,43.0,19.9,40,30.61,10.0,Variable,3.5,-,N/A,,Clear,0,2012-11-17 18:52:00
2:52 PM,42.1,19.9,41,30.61,10.0,WNW,3.5,-,N/A,,Clear,300,2012-11-17 19:52:00
3:52 PM,37.0,21.9,54,30.63,10.0,Calm,Calm,-,N/A,,Clear,0,2012-11-17 20:52:00
4:52 PM,28.9,21.9,75,30.65,10.0,Calm,Calm,-,N/A,,Clear,0,2012-11-17 21:52:00
5:52 PM,27.0,21.0,78,30.67,10.0,Calm,Calm,-,N/A,,Clear,0,2012-11-17 22:52:00
6:52 PM,25.0,19.0,78,30.69,10.0,Calm,Calm,-,N/A,,Clear,0,2012-11-17 23:52:00
7:52 PM,23.0,18.0,81,30.69,10.0,Calm,Calm,-,N/A,,Clear,0,2012-11-18 00:52:00
8:52 PM,23.0,18.0,81,30.69,10.0,Calm,Calm,-,N/A,,Clear,0,2012-11-18 01:52:00
9:52 PM,21.0,17.1,85,30.69,10.0,Calm,Calm,-,N/A,,Clear,0,2012-11-18 02:52:00
10:52 PM,19.9,16.0,85,30.71,10.0,Calm,Calm,-,N/A,,Clear,0,2012-11-18 03:52:00
11:52 PM,19.0,15.1,85,30.71,10.0,Calm,Calm,-,N/A,,Clear,0,2012-11-18 04:52:00